1 AAAAAU 00 0 0 BBBBB.BBBBBBBB .CCCCCCCC 00000-0 00000-0 0 DDDZ
2 AAAAA EEE.EEEE FFF.FFFF GGGGGGG HHH.HHHH III.IIII JJ.JJJJJJJJKKKKKZ
KEY: A-CATALOGNUM B-EPOCHTIME C-DECAY D-ELSETNUM E-INCLINATION F-RAAN
G-ECCENTRICITY H-ARGPERIGEE I-MNANOM J-MNMOTION K-ORBITNUM Z-CHECKSUM
TO ALL RADIO AMATEURS BT
AO-07
1 07530U 74089B 07172.53083657 -.00000028 00000-0 10000-3 0 09082
2 07530 101.5127 210.4108 0011703 247.8733 112.1101 12.53572495491662
AO-10
1 14129U 83058B 07173.39957938 .00000044 00000-0 10000-3 0 3897
2 14129 026.4316 270.6659 6064119 032.6799 353.2812 02.05867418180676
UO-11
1 14781U 84021B 07172.65412610 .00000171 00000-0 30211-4 0 04027
2 14781 098.1884 195.4417 0009380 150.7861 209.3842 14.79561483250395
RS-15
1 23439U 94085A 07172.94951946 -.00000039 00000-0 10597-3 0 00518
2 23439 064.8199 359.2181 0159220 189.8725 169.9056 11.27551787514233
FO-29
1 24278U 96046B 07173.89889138 .00000033 00000-0 67182-4 0 5316
2 24278 098.5528 132.7796 0351595 068.5553 295.2702 13.52931237535676
SO-33
1 25509U 98061B 07172.45958025 -.00000182 00000-0 -47540-4 0 09571
2 25509 031.4278 201.5889 0354951 104.7053 259.3191 14.28167486451869
AO-40
1 26609U 00072B 07170.72634822 -.00000236 00000-0 10000-3 0 08918
2 26609 005.6615 138.6891 7983451 330.9691 001.7800 01.25587024030476
VO-52
1 28650U 05017B 07173.24275432 .00000470 00000-0 66596-4 0 6579
2 28650 097.8313 243.8479 0026282 235.6142 124.2582 14.81329875115160
PO-63
1 29712U 07001D 07173.65460662 .00000538 00000-0 78436-4 0 4771
2 29712 097.9209 232.7382 0015740 109.5836 250.7076 14.79734510 24144
AO-16
1 20439U 90005D 07172.56321543 .00000007 00000-0 17625-4 0 00643
2 20439 098.1950 166.8777 0010677 168.7277 191.4156 14.31763135909170
LO-19
1 20442U 90005G 07172.88043316 -.00000023 00000-0 65954-5 0 09907
2 20442 098.1795 176.5228 0011836 167.0424 193.1069 14.32003439909362
AO-27
1 22825U 93061C 07173.44873822 -.00000049 00000-0 -30659-5 0 7131
2 22825 098.3303 143.1006 0007415 247.6568 112.3844 14.29211135716249
IO-26
1 22826U 93061D 07172.65519296 -.00000012 00000-0 11394-4 0 04114
2 22826 098.3239 143.4105 0007954 246.2233 113.8109 14.29457425716214
PO-28
1 22829U 93061G 07172.88886756 -.00000067 00000-0 -98463-5 0 06891
2 22829 098.3124 144.7999 0008836 216.2867 143.7719 14.30157594716489
GO-32
1 25397U 98043D 07173.57385182 .00000048 00000-0 39523-4 0 3315
2 25397 098.4129 220.5522 0001099 166.4768 193.6451 14.23127647464927
MO-46
1 26548U 00057D 07172.43195214 -.00000062 00000-0 10369-4 0 08253
2 26548 064.5550 169.5324 0015002 196.4156 163.6426 14.83151656364160
NO-44
1 26931U 01043C 07172.35629672 -.00000065 00000-0 70077-5 0 06171
2 26931 067.0512 136.7497 0007654 263.1983 096.8264 14.29487152298697
SO-50
1 27607U 02058C 07172.20161349 .00000076 00000-0 33898-4 0 03419
2 27607 064.5586 072.8471 0054839 358.8241 001.2729 14.71267935241718
CO-55
1 27844U 03031E 07172.68276117 .00000052 00000-0 44474-4 0 00576
2 27844 098.7173 180.9217 0011067 079.0921 281.1498 14.20517751206119
CO-57
1 27848U 03031J 07172.56301668 .00000011 00000-0 25607-4 0 00164
2 27848 098.7160 179.9979 0010755 081.0679 279.1717 14.20335678206070
AO-51
1 28375U 04025K 07172.66623326 .00000029 00000-0 21357-4 0 08450
2 28375 098.1115 211.7537 0083509 168.3102 192.0049 14.40571873156360
CO-56
1 28941U 06005C 07172.93669283 .00005388 25264-5 62267-4 0 04853
2 28941 098.1279 234.5613 0223641 256.0606 101.5680 15.40025005074160
HO-59
1 29484U 06041F 07173.65362809 .00015601 27138-5 11133-3 0 4351
2 29484 098.2822 224.2603 0205125 246.0453 111.9205 15.51494011 41924
NO-60
1 29661U 06055C 07150.05824307 .13324117 12618-4 10400-3 0 3000
2 29661 051.6186 176.5045 0007204 190.7749 188.7342 16.52052832 25544
NO-61
1 29664U 06055F 07173.76260672 .00024789 11401-4 82539-4 0 2341
2 29664 051.6319 063.0264 0011912 013.1008 347.0462 15.91986880 29048
CP4
1 31122U 07012F 07173.62119596 .00000597 00000-0 14251-3 0 657
2 31122 098.0822 246.7203 0085995 009.2754 350.9975 14.55013027 9642
CP3
1 31128U 07012M 07172.73201644 -.00000048 00000-0 00000-0 0 00599
2 31128 098.0827 245.5376 0102659 012.8170 347.5610 14.51841437009480
LIBERT
1 31129U 07012N 07173.69298572 .00000384 00000-0 10000-3 0 1702
2 31129 098.0822 246.4664 0102797 009.7129 350.6004 14.51932852 9606
NOAA-10
1 16969U 86073A 07172.92976277 .00000025 00000-0 28525-4 0 07004
2 16969 098.7441 190.1149 0012695 150.0520 210.1389 14.27327845079909
NOAA-11
1 19531U 88089A 07172.72825670 .00000222 00000-0 13783-3 0 06972
2 19531 098.8121 261.8353 0011803 022.7883 337.3835 14.14847716966793
NOAA-12
1 21263U 91032A 07172.72502316 .00000188 00000-0 98058-4 0 01940
2 21263 098.7517 169.9582 0013838 094.3494 265.9248 14.25537874836895
MET-3/5
1 21655U 91056A 07172.95848518 .00000051 00000-0 10000-3 0 03494
2 21655 082.5553 359.5713 0012952 191.5340 168.5487 13.17010015762030
MET-2/21
1 22782U 93055A 07172.56329129 .00000094 00000-0 71785-4 0 08564
2 22782 082.5479 038.4440 0021280 221.3652 138.5911 13.83618673697124
OKEAN-4
1 23317U 94066A 07172.76983846 .00000180 00000-0 19464-4 0 02977
2 23317 082.5406 292.2573 0020722 235.2185 124.7090 14.82512558684734
NOAA-14
1 23455U 94089A 07172.89215372 -.00000043 00000-0 13915-5 0 06767
2 23455 098.9883 239.1025 0010406 088.3692 271.8674 14.13720506643305
SICH-1
1 23657U 95046A 07172.74616351 -.00000037 00000-0 -76937-5 0 00986
2 23657 082.5280 073.2270 0022399 226.3092 133.6251 14.81493265636706
NOAA-15
1 25338U 98030A 07172.73686637 .00000187 00000-0 98812-4 0 00386
2 25338 098.5297 169.2911 0011007 022.1204 338.0456 14.24649653473335
RESURS
1 25394U 98043A 07173.75881311 -.00000006 00000-0 15372-4 0 6704
2 25394 098.4370 228.0677 0001581 137.8609 222.2692 14.24138950465149
FENGYUN1
1 25730U 99025A 07172.54398562 .00000132 00000-0 10280-3 0 01487
2 25730 098.6867 156.2455 0021898 113.7263 246.6233 14.07530300418082
OKEAN-0
1 25860U 99039A 07172.57814245 .00000023 00000-0 10731-4 0 00840
2 25860 097.7293 174.6214 0001654 049.1600 310.9744 14.73459279426147
NOAA-16
1 26536U 00055A 07172.86513799 -.00000069 00000-0 -12205-4 0 04522
2 26536 099.1165 149.8878 0010848 155.8902 204.2799 14.12432904347761
NOAA-17
1 27453U 02032A 07172.87549566 .00000141 00000-0 80179-4 0 04625
2 27453 098.5788 242.0652 0012828 082.6682 277.5951 14.23888412259386
NOAA-18
1 28654U 05018A 07172.86224537 -.00000125 00000-0 -45359-4 0 00006
2 28654 098.8278 114.0666 0013315 255.2327 104.7367 14.11072419107514
HUBBLE
1 20580U 90037B 07172.39871302 .00000304 00000-0 10713-4 0 09043
2 20580 028.4680 162.6613 0003870 142.4920 217.5941 15.00253223740597
UARS
1 21701U 91063B 07173.83321597 .00003907 00000-0 69888-4 0 988
2 21701 056.9755 289.4356 0090388 199.5241 160.2347 15.48324713866625
PO-34
1 25520U 98064B 07172.97781307 .00000325 00000-0 63049-5 0 07636
2 25520 028.4596 076.6871 0005162 305.9542 054.0578 15.17011225478257
ISS
1 25544U 98067A 07173.95455630 .00014850 00000-0 88165-4 0 4484
2 25544 051.6339 074.1020 0007736 350.5671 117.3069 15.78262063491688
OO-38
1 26063U 00004C 07172.62942493 -.00000038 00000-0 73969-5 0 09404
2 26063 100.2268 176.0719 0036962 146.6771 213.6743 14.35808391387687
UWE-1
1 28892U 05043C 07172.73642296 .00000056 00000-0 21562-4 0 07772
2 28892 098.1308 069.2912 0018692 097.7236 262.6076 14.59514822087879
CO-58
1 28895U 05043F 07173.74326595 .00000053 00000-0 20829-4 0 7578
2 28895 098.1339 070.4922 0019078 094.1142 266.2262 14.59561714 87900
NCUBE2
1 28897U 05043H 07172.65215800 .00000138 00000-0 38630-4 0 02832
2 28897 098.1319 069.3786 0018203 098.6818 261.6445 14.59724697080022
NMARS
1 29662U 06055D 07126.39603970 .07031946 12599-4 11450-3 0 2632
2 29662 051.6121 302.3682 0004459 252.1654 110.7411 16.47981436 21652
FCAL
1 29667U 06055J 07173.67609717 .00008417 11077-4 41640-4 0 1820
2 29667 051.6326 065.5058 0014060 012.5247 347.6129 15.88381746 28874
FALCON
1 30776U 07006E 07172.43951654 .00000134 00000-0 12911-4 0 00874
2 30776 035.4328 186.8855 0000289 104.5722 255.5026 15.02724230015693
MAST
1 31126U 07012K 07172.80197083 .00000394 00000-0 10000-3 0 00627
2 31126 098.0820 245.7584 0095222 011.9213 348.4193 14.53347815009523
CAPE1
1 31130U 07012P 07172.93797387 -.00000046 00000-0 36961-6 0 00531
2 31130 098.0858 245.7395 0102766 012.2384 348.1274 14.51860008009309
/EX
1
0
SB KEPS @ AMSAT $ORB07173.O
Orbital Elements 07173.OSCAR
HR AMSAT ORBITAL ELEMENTS FOR OSCAR SATELLITES
FROM WA5QGD FORT WORTH,TX June 22, 2007
Send Subscribe/unsubscribe to KEPS at
http://www.amsat.org/mailman/listinfo/keps
BID: ORB07173.O
TO ALL RADIO AMATEURS BT
Satellite: AO-07
Catalog number: 07530
Epoch time: 07172.53083657
Element set: 0908
Inclination: 101.5127 deg
RA of node: 210.4108 deg
Eccentricity: 0.0011703
Arg of perigee: 247.8733 deg
Mean anomaly: 112.1101 deg
Mean motion: 12.53572495 rev/day
Decay rate: -2.8e-07 rev/day^2
Epoch rev: 49166
Checksum: 270
Satellite: AO-10
Catalog number: 14129
Epoch time: 07173.39957938
Element set: 389
Inclination: 026.4316 deg
RA of node: 270.6659 deg
Eccentricity: 0.6064119
Arg of perigee: 032.6799 deg
Mean anomaly: 353.2812 deg
Mean motion: 02.05867418 rev/day
Decay rate: 4.4e-07 rev/day^2
Epoch rev: 18067
Checksum: 335
Satellite: UO-11
Catalog number: 14781
Epoch time: 07172.65412610
Element set: 0402
Inclination: 098.1884 deg
RA of node: 195.4417 deg
Eccentricity: 0.0009380
Arg of perigee: 150.7861 deg
Mean anomaly: 209.3842 deg
Mean motion: 14.79561483 rev/day
Decay rate: 1.71e-06 rev/day^2
Epoch rev: 25039
Checksum: 302
Satellite: RS-15
Catalog number: 23439
Epoch time: 07172.94951946
Element set: 0051
Inclination: 064.8199 deg
RA of node: 359.2181 deg
Eccentricity: 0.0159220
Arg of perigee: 189.8725 deg
Mean anomaly: 169.9056 deg
Mean motion: 11.27551787 rev/day
Decay rate: -3.9e-07 rev/day^2
Epoch rev: 51423
Checksum: 341
Satellite: FO-29
Catalog number: 24278
Epoch time: 07173.89889138
Element set: 531
Inclination: 098.5528 deg
RA of node: 132.7796 deg
Eccentricity: 0.0351595
Arg of perigee: 068.5553 deg
Mean anomaly: 295.2702 deg
Mean motion: 13.52931237 rev/day
